sat.trackr.live / text

‹ back to catalog

STARLINK-37422

NORAD 69191 · 2026-114K

PAYLOAD ACTIVE UNKNOWN

§ Identity

Operator
Country
US
Launch date
2026-05-25
Launch site
AFETR
Launch vehicle
Mass (kg)
RCS (m²)

Purposes: comms

External: N2YO · Heavens-Above · Gunter

§ Orbital elements

Epoch: 2026-09-19T23:26:04.894656Z

Period
93.85 min
Inclination
53.1562°
Eccentricity
0.0001441
Mean motion
15.34406906 rev/d
Perigee alt
461.7 km
Apogee alt
463.7 km
Semi-major
6,840.8 km
B*
6.9432e-4
RAAN
116.3192°
Arg perigee
63.7930°
Mean anomaly
296.3221°
Rev number
1,936

§ Raw data

STARLINK-374221 69191U 26114K   26262.97644554  .00023160  00000+0  69432-3 0  99902 69191  53.1562 116.3192 0001441  63.7930 296.3221 15.34406906 19363

JSON: /api/v1/satellites/69191 · /tle

For live sub-satellite position, see the globe view (requires WebGL).

§ Visibility from observer

Set your observer location to see the next 7 days of passes ≥ 10°. The values pass through the URL so the page stays shareable.

No JS? Fill the form by hand. The geolocation button needs JavaScript.